sat.trackr.live / text

‹ back to catalog

STARLINK-5902

NORAD 55998 · 2023-042N

PAYLOAD ACTIVE UNKNOWN

§ Identity

Operator
Country
US
Launch date
2023-03-24
Launch site
AFETR
Launch vehicle
Mass (kg)
RCS (m²)

Purposes: comms

External: N2YO · Heavens-Above · Gunter

§ Orbital elements

Epoch: 2026-05-24T22:37:25.854240Z

Period
94.27 min
Inclination
43.0040°
Eccentricity
0.0001362
Mean motion
15.27577048 rev/d
Perigee alt
482.1 km
Apogee alt
484.0 km
Semi-major
6,861.2 km
B*
1.4909e-5
RAAN
348.7725°
Arg perigee
267.2812°
Mean anomaly
92.7883°
Rev number
17,453

§ Raw data

STARLINK-59021 55998U 23042N   26144.94266035  .00000148  00000+0  14909-4 0  99982 55998  43.0040 348.7725 0001362 267.2812  92.7883 15.27577048174538

JSON: /api/v1/satellites/55998 · /tle

For live sub-satellite position, see the globe view (requires WebGL).

§ Visibility from observer

Set your observer location to see the next 7 days of passes ≥ 10°. The values pass through the URL so the page stays shareable.

No JS? Fill the form by hand. The geolocation button needs JavaScript.